TimePST,TemperatureF,Dew PointF,Humidity,Sea Level PressureIn,VisibilityMPH,Wind Direction,Wind SpeedMPH,Gust SpeedMPH,PrecipitationIn,Events,Conditions,WindDirDegrees,DateUTC
1:53 AM,34.0,23.0,64,30.28,10.0,South,5.8,-,N/A,,Clear,170,2013-03-04 09:53:00
2:53 AM,33.1,23.0,66,30.28,10.0,SSE,5.8,-,N/A,,Clear,160,2013-03-04 10:53:00
4:53 AM,28.0,21.9,78,30.29,10.0,ESE,4.6,-,N/A,,Clear,110,2013-03-04 12:53:00
5:53 AM,30.0,21.9,72,30.29,10.0,ESE,4.6,-,N/A,,Clear,120,2013-03-04 13:53:00
6:53 AM,30.9,21.9,69,30.31,10.0,Calm,Calm,-,N/A,,Clear,0,2013-03-04 14:53:00
7:53 AM,36.0,26.1,67,30.30,10.0,East,4.6,-,N/A,,Clear,90,2013-03-04 15:53:00
8:53 AM,41.0,21.9,47,30.30,10.0,Calm,Calm,-,N/A,,Clear,0,2013-03-04 16:53:00
9:53 AM,42.1,23.0,47,30.30,10.0,Calm,Calm,-,N/A,,Clear,0,2013-03-04 17:53:00
10:53 AM,45.0,25.0,46,30.27,10.0,Calm,Calm,-,N/A,,Clear,0,2013-03-04 18:53:00
11:53 AM,46.9,26.1,44,30.25,10.0,NE,3.5,-,N/A,,Clear,40,2013-03-04 19:53:00
12:53 PM,48.9,25.0,39,30.23,10.0,NNE,8.1,-,N/A,,Clear,20,2013-03-04 20:53:00
1:53 PM,51.1,25.0,36,30.18,10.0,NNE,9.2,-,N/A,,Clear,20,2013-03-04 21:53:00
2:53 PM,52.0,23.0,32,30.16,10.0,North,5.8,-,N/A,,Clear,10,2013-03-04 22:53:00
3:53 PM,52.0,27.0,38,30.14,10.0,NNE,10.4,-,N/A,,Clear,20,2013-03-04 23:53:00
4:53 PM,46.9,30.9,54,30.12,10.0,NNE,10.4,-,N/A,,Clear,20,2013-03-05 00:53:00
5:53 PM,44.1,28.9,55,30.10,10.0,NE,9.2,-,N/A,,Clear,50,2013-03-05 01:53:00
6:53 PM,41.0,26.1,55,30.09,10.0,Calm,Calm,-,N/A,,Clear,0,2013-03-05 02:53:00
7:53 PM,39.0,21.9,50,30.07,10.0,Calm,Calm,-,N/A,,Clear,0,2013-03-05 03:53:00
8:53 PM,39.9,19.9,45,30.06,10.0,NNE,5.8,-,N/A,,Clear,20,2013-03-05 04:53:00
9:53 PM,45.0,17.1,33,30.04,10.0,Calm,Calm,-,N/A,,Clear,0,2013-03-05 05:53:00
11:53 PM,35.1,23.0,61,30.02,10.0,Calm,Calm,-,N/A,,Clear,0,2013-03-05 07:53:00